TimeCST,TemperatureF,Dew PointF,Humidity,Sea Level PressureIn,VisibilityMPH,Wind Direction,Wind SpeedMPH,Gust SpeedMPH,PrecipitationIn,Events,Conditions,WindDirDegrees,DateUTC
12:07 AM,64.4,64.4,100,29.92,7.0,Calm,Calm,-,N/A,,Overcast,0,2012-12-25 06:07:00
12:29 AM,62.6,62.6,100,29.92,3.0,Calm,Calm,-,N/A,,Mostly Cloudy,0,2012-12-25 06:29:00
12:39 AM,62.6,62.6,100,29.92,5.0,WSW,3.5,-,N/A,,Mostly Cloudy,250,2012-12-25 06:39:00
12:50 AM,62.6,62.6,100,29.91,2.5,Calm,Calm,-,N/A,,Overcast,0,2012-12-25 06:50:00
12:52 AM,62.6,62.6,100,29.91,2.0,Calm,Calm,-,N/A,,Overcast,0,2012-12-25 06:52:00
12:55 AM,63.3,63.3,100,29.91,2.0,Calm,Calm,-,N/A,,Overcast,0,2012-12-25 06:55:00
12:59 AM,62.6,62.6,100,29.91,1.2,Calm,Calm,-,N/A,,Overcast,0,2012-12-25 06:59:00
1:02 AM,62.6,62.6,100,29.91,1.0,Calm,Calm,-,N/A,,Mist,0,2012-12-25 07:02:00
1:06 AM,62.6,62.6,100,29.91,1.0,Calm,Calm,-,N/A,,Mist,0,2012-12-25 07:06:00
1:07 AM,62.6,62.6,100,29.91,0.8,Calm,Calm,-,N/A,,Mist,0,2012-12-25 07:07:00
1:11 AM,62.6,62.6,100,29.91,0.5,Calm,Calm,-,N/A,Fog,Fog,0,2012-12-25 07:11:00
1:39 AM,62.6,62.6,100,29.91,0.5,South,3.5,-,N/A,Fog,Fog,190,2012-12-25 07:39:00
1:45 AM,62.6,62.6,100,29.91,0.5,SW,3.5,-,N/A,Fog,Fog,220,2012-12-25 07:45:00
1:55 AM,62.8,62.8,100,29.92,0.5,SW,3.5,-,N/A,Fog,Fog,230,2012-12-25 07:55:00
1:58 AM,62.6,62.6,100,29.92,0.5,Calm,Calm,-,N/A,Fog,Fog,0,2012-12-25 07:58:00
2:03 AM,62.6,62.6,100,29.91,0.2,Calm,Calm,-,N/A,Fog,Fog,0,2012-12-25 08:03:00
2:11 AM,62.6,62.6,100,29.91,0.5,Calm,Calm,-,N/A,Fog,Fog,0,2012-12-25 08:11:00
2:34 AM,62.6,62.6,100,29.92,0.2,South,4.6,-,N/A,Fog,Fog,170,2012-12-25 08:34:00
2:55 AM,62.2,62.2,100,29.91,0.2,Calm,Calm,-,N/A,Fog,Fog,0,2012-12-25 08:55:00
3:15 AM,62.6,62.6,100,29.91,0.5,Calm,Calm,-,N/A,Fog,Fog,0,2012-12-25 09:15:00
3:39 AM,62.6,62.6,100,29.91,0.5,ENE,3.5,-,N/A,Fog,Fog,70,2012-12-25 09:39:00
3:46 AM,62.6,62.6,100,29.90,0.8,ENE,3.5,-,N/A,,Mist,70,2012-12-25 09:46:00
3:51 AM,62.6,62.6,100,29.90,1.0,East,3.5,-,N/A,,Mist,80,2012-12-25 09:51:00
3:52 AM,62.6,62.6,100,29.90,1.0,East,3.5,-,N/A,,Mist,80,2012-12-25 09:52:00
3:54 AM,62.6,62.6,100,29.90,1.2,Calm,Calm,-,N/A,,Overcast,0,2012-12-25 09:54:00
3:55 AM,62.1,62.1,100,29.90,1.0,East,3.5,-,N/A,,Mist,80,2012-12-25 09:55:00
3:56 AM,62.6,62.6,100,29.90,1.5,East,3.5,-,N/A,,Overcast,80,2012-12-25 09:56:00
4:02 AM,62.6,62.6,100,29.90,2.0,ESE,4.6,-,N/A,,Overcast,110,2012-12-25 10:02:00
4:07 AM,62.6,62.6,100,29.90,2.5,East,4.6,-,N/A,,Overcast,100,2012-12-25 10:07:00
4:15 AM,62.6,62.6,100,29.89,2.0,East,4.6,-,N/A,,Overcast,100,2012-12-25 10:15:00
4:18 AM,62.6,62.6,100,29.89,1.8,East,4.6,-,N/A,,Overcast,100,2012-12-25 10:18:00
4:23 AM,62.6,62.6,100,29.89,1.2,East,4.6,-,N/A,,Overcast,90,2012-12-25 10:23:00
4:27 AM,62.6,62.6,100,29.89,1.0,East,4.6,-,N/A,,Mist,100,2012-12-25 10:27:00
4:30 AM,62.6,62.6,100,29.89,1.0,East,4.6,-,N/A,,Mist,100,2012-12-25 10:30:00
4:31 AM,62.6,62.6,100,29.89,0.8,East,4.6,-,N/A,,Mist,90,2012-12-25 10:31:00
4:39 AM,62.6,62.6,100,29.89,0.5,ENE,4.6,-,N/A,Fog,Fog,70,2012-12-25 10:39:00
4:44 AM,62.6,62.6,100,29.89,0.5,East,4.6,-,N/A,Fog,Fog,80,2012-12-25 10:44:00
4:55 AM,62.2,62.2,100,29.89,0.5,East,5.8,-,N/A,Fog,Fog,100,2012-12-25 10:55:00
5:06 AM,62.6,62.6,100,29.89,1.0,East,4.6,-,N/A,,Mist,90,2012-12-25 11:06:00
5:10 AM,62.6,62.6,100,29.90,1.2,East,3.5,-,N/A,,Overcast,100,2012-12-25 11:10:00
5:12 AM,62.6,62.6,100,29.90,1.2,East,3.5,-,N/A,,Overcast,100,2012-12-25 11:12:00
5:14 AM,62.6,62.6,100,29.90,1.5,ESE,3.5,-,N/A,,Overcast,110,2012-12-25 11:14:00
5:27 AM,62.6,62.6,100,29.90,1.2,ESE,3.5,-,N/A,,Overcast,110,2012-12-25 11:27:00
5:37 AM,62.6,62.6,100,29.90,1.0,East,4.6,-,N/A,,Mist,100,2012-12-25 11:37:00
5:44 AM,62.6,62.6,100,29.90,0.8,East,4.6,-,N/A,,Mist,80,2012-12-25 11:44:00
5:51 AM,62.6,62.6,100,29.90,0.8,East,4.6,-,N/A,,Mist,80,2012-12-25 11:51:00
5:55 AM,62.4,62.4,100,29.90,0.8,East,5.8,-,N/A,,Mist,80,2012-12-25 11:55:00
6:37 AM,62.6,62.6,100,29.88,0.5,East,3.5,-,N/A,Fog,Fog,90,2012-12-25 12:37:00
6:43 AM,62.6,62.6,100,29.89,0.2,East,4.6,-,N/A,Fog,Fog,100,2012-12-25 12:43:00
6:55 AM,62.8,62.8,100,29.88,0.2,ESE,5.8,-,N/A,Fog,Fog,110,2012-12-25 12:55:00
7:07 AM,62.6,62.6,100,29.87,0.5,ESE,6.9,-,N/A,Fog,Fog,110,2012-12-25 13:07:00
7:46 AM,64.4,64.4,100,29.86,0.8,ESE,8.1,-,N/A,,Mist,110,2012-12-25 13:46:00
7:50 AM,64.4,64.4,100,29.86,0.8,ESE,5.8,-,N/A,Rain,Light Rain,110,2012-12-25 13:50:00
7:55 AM,63.7,63.7,100,29.86,1.0,SE,5.8,-,0.01,Rain,Rain,130,2012-12-25 13:55:00
7:56 AM,64.4,64.4,100,29.86,1.2,ESE,6.9,-,N/A,Rain,Light Rain,120,2012-12-25 13:56:00
7:59 AM,64.4,64.4,100,29.86,1.5,ESE,6.9,-,N/A,Rain,Light Rain,110,2012-12-25 13:59:00
8:01 AM,64.4,64.4,100,29.86,2.0,ESE,8.1,-,N/A,Rain,Light Rain,120,2012-12-25 14:01:00
8:03 AM,64.4,64.4,100,29.86,2.5,ESE,8.1,-,N/A,Rain,Light Rain,120,2012-12-25 14:03:00
8:04 AM,64.4,64.4,100,29.86,3.0,ESE,6.9,-,N/A,Rain,Light Rain,120,2012-12-25 14:04:00
8:10 AM,64.4,64.4,100,29.86,10.0,SSE,5.8,-,N/A,,Overcast,150,2012-12-25 14:10:00
8:12 AM,64.4,64.4,100,29.86,10.0,SSE,5.8,-,N/A,,Overcast,150,2012-12-25 14:12:00
8:20 AM,64.4,64.4,100,29.86,10.0,SE,8.1,-,N/A,,Overcast,140,2012-12-25 14:20:00
8:47 AM,64.4,64.4,100,29.89,10.0,South,6.9,-,N/A,Rain,Light Rain,170,2012-12-25 14:47:00
8:55 AM,65.1,65.1,100,29.90,10.0,SSE,8.1,-,0.03,,Light Drizzle,160,2012-12-25 14:55:00
8:57 AM,66.2,66.2,100,29.89,10.0,SSE,9.2,-,N/A,,Overcast,160,2012-12-25 14:57:00
9:03 AM,66.2,66.2,100,29.88,10.0,SSE,9.2,-,N/A,,Overcast,160,2012-12-25 15:03:00
9:15 AM,66.2,66.2,100,29.89,10.0,SSE,9.2,-,N/A,,Overcast,150,2012-12-25 15:15:00
9:28 AM,66.2,66.2,100,29.88,10.0,SSE,8.1,-,N/A,,Overcast,150,2012-12-25 15:28:00
9:33 AM,66.2,66.2,100,29.88,10.0,SE,9.2,-,N/A,,Light Drizzle,140,2012-12-25 15:33:00
9:45 AM,66.2,66.2,100,29.88,10.0,SE,8.1,-,N/A,,Overcast,140,2012-12-25 15:45:00
9:55 AM,66.2,66.2,100,29.89,10.0,SSE,8.1,-,0.00,,Overcast,160,2012-12-25 15:55:00
10:11 AM,66.2,66.2,100,29.88,10.0,SSE,8.1,-,N/A,,Mostly Cloudy,150,2012-12-25 16:11:00
10:15 AM,66.2,66.2,100,29.88,10.0,SSE,9.2,-,N/A,,Light Drizzle,150,2012-12-25 16:15:00
10:25 AM,66.2,66.2,100,29.89,10.0,SSE,8.1,-,N/A,,Mostly Cloudy,160,2012-12-25 16:25:00
10:31 AM,66.2,66.2,100,29.88,10.0,SSE,6.9,-,N/A,,Mostly Cloudy,160,2012-12-25 16:31:00
10:55 AM,67.3,67.3,100,29.87,10.0,SSE,11.5,-,0.00,,Mostly Cloudy,160,2012-12-25 16:55:00
10:57 AM,68.0,68.0,100,29.87,10.0,SSE,10.4,-,N/A,,Mostly Cloudy,160,2012-12-25 16:57:00
11:44 AM,68.0,68.0,100,29.86,10.0,South,12.7,-,N/A,,Mostly Cloudy,170,2012-12-25 17:44:00
11:46 AM,68.0,68.0,100,29.86,10.0,South,15.0,-,N/A,,Scattered Clouds,170,2012-12-25 17:46:00
11:55 AM,68.7,68.5,99,29.85,10.0,South,12.7,-,N/A,,Scattered Clouds,170,2012-12-25 17:55:00
12:55 PM,70.7,65.8,85,29.81,10.0,South,13.8,-,N/A,,Scattered Clouds,170,2012-12-25 18:55:00
1:23 PM,69.8,66.2,88,29.79,10.0,SSE,12.7,-,N/A,,Mostly Cloudy,150,2012-12-25 19:23:00
1:36 PM,69.8,66.2,88,29.78,10.0,SSE,12.7,-,N/A,,Mostly Cloudy,150,2012-12-25 19:36:00
1:37 PM,69.8,66.2,88,29.78,10.0,SSE,13.8,-,N/A,,Mostly Cloudy,150,2012-12-25 19:37:00
1:47 PM,69.8,66.2,88,29.78,10.0,SSE,16.1,-,N/A,,Mostly Cloudy,150,2012-12-25 19:47:00
1:55 PM,70.5,65.5,84,29.77,10.0,SSE,16.1,20.7,N/A,,Mostly Cloudy,160,2012-12-25 19:55:00
2:17 PM,69.8,66.2,88,29.78,10.0,SSE,11.5,-,N/A,,Mostly Cloudy,160,2012-12-25 20:17:00
2:55 PM,70.3,65.5,85,29.75,10.0,SSE,11.5,21.9,N/A,,Mostly Cloudy,150,2012-12-25 20:55:00
2:56 PM,69.8,66.2,88,29.77,10.0,SSE,11.5,21.9,N/A,,Scattered Clouds,160,2012-12-25 20:56:00
3:29 PM,69.8,64.4,83,29.75,10.0,SSE,15.0,-,N/A,Rain,Light Rain,150,2012-12-25 21:29:00
3:36 PM,69.8,64.4,83,29.74,10.0,SSE,12.7,-,N/A,Rain,Light Rain,150,2012-12-25 21:36:00
3:39 PM,69.8,64.4,83,29.75,10.0,SSE,12.7,-,N/A,,Mostly Cloudy,160,2012-12-25 21:39:00
3:44 PM,69.8,64.4,83,29.75,10.0,SSE,13.8,-,N/A,,Light Drizzle,160,2012-12-25 21:44:00
3:52 PM,69.8,66.2,88,29.75,10.0,SSE,12.7,-,N/A,,Light Drizzle,160,2012-12-25 21:52:00
3:55 PM,69.8,65.7,87,29.75,10.0,SSE,16.1,21.9,0.00,,Mostly Cloudy,160,2012-12-25 21:55:00
4:01 PM,69.8,66.2,88,29.75,10.0,SSE,13.8,21.9,N/A,,Mostly Cloudy,160,2012-12-25 22:01:00
4:02 PM,69.8,66.2,88,29.75,10.0,SSE,13.8,21.9,N/A,,Mostly Cloudy,160,2012-12-25 22:02:00
4:20 PM,69.8,66.2,88,29.75,10.0,South,13.8,-,N/A,Rain,Light Rain,170,2012-12-25 22:20:00
4:36 PM,68.0,66.2,94,29.73,10.0,South,15.0,19.6,N/A,,Mostly Cloudy,170,2012-12-25 22:36:00
4:38 PM,68.0,66.2,94,29.73,10.0,South,16.1,-,N/A,,Mostly Cloudy,170,2012-12-25 22:38:00
4:41 PM,68.0,66.2,94,29.74,10.0,South,12.7,-,N/A,,Scattered Clouds,180,2012-12-25 22:41:00
4:55 PM,68.7,65.7,90,29.75,10.0,South,17.3,23.0,0.00,,Mostly Cloudy,180,2012-12-25 22:55:00
5:01 PM,69.8,66.2,88,29.72,10.0,SSE,17.3,23.0,N/A,Rain,Light Rain,160,2012-12-25 23:01:00
5:12 PM,68.0,66.2,94,29.73,10.0,South,13.8,28.8,N/A,,Scattered Clouds,170,2012-12-25 23:12:00
5:55 PM,68.4,65.3,90,29.74,10.0,SSE,16.1,-,0.01,,Clear,160,2012-12-25 23:55:00
6:22 PM,68.0,66.2,94,29.72,10.0,SSE,17.3,23.0,N/A,Rain,Light Rain,160,2012-12-26 00:22:00
6:48 PM,68.0,66.2,94,29.70,10.0,South,18.4,-,N/A,,Partly Cloudy,170,2012-12-26 00:48:00
6:55 PM,68.7,65.7,90,29.71,10.0,South,18.4,24.2,0.00,,Partly Cloudy,170,2012-12-26 00:55:00
7:55 PM,69.6,65.7,87,29.67,10.0,SSE,23.0,33.4,0.01,,Scattered Clouds,160,2012-12-26 01:55:00
8:55 PM,70.3,65.1,83,29.65,10.0,South,24.2,32.2,N/A,,Mostly Cloudy,170,2012-12-26 02:55:00
9:38 PM,69.8,64.4,83,29.63,10.0,South,24.2,34.5,N/A,Rain-Thunderstorm,Light Rain,180,2012-12-26 03:38:00
9:49 PM,69.8,64.4,83,29.63,10.0,South,19.6,31.1,N/A,Rain-Thunderstorm,Light Thunderstorms and Rain,190,2012-12-26 03:49:00
9:55 PM,69.6,65.1,86,29.64,10.0,SSW,20.7,31.1,0.00,Rain-Thunderstorm,Light Thunderstorms and Rain,200,2012-12-26 03:55:00
10:05 PM,69.8,64.4,83,29.62,10.0,South,21.9,34.5,N/A,Rain,Light Rain,180,2012-12-26 04:05:00
10:29 PM,68.0,64.4,88,29.61,10.0,South,29.9,40.3,N/A,Thunderstorm,Mostly Cloudy,180,2012-12-26 04:29:00
10:34 PM,68.0,64.4,88,29.60,10.0,South,26.5,40.3,N/A,Rain,Light Rain,180,2012-12-26 04:34:00
10:55 PM,68.5,64.4,87,29.60,10.0,South,26.5,40.3,0.04,Rain-Thunderstorm,Light Thunderstorms and Rain,180,2012-12-26 04:55:00
11:05 PM,68.0,64.4,88,29.65,2.5,WSW,21.9,40.3,N/A,Rain-Thunderstorm,Thunderstorms and Rain,250,2012-12-26 05:05:00
11:06 PM,68.0,64.4,88,29.65,2.0,WSW,23.0,40.3,N/A,Rain-Thunderstorm,Thunderstorms and Rain,250,2012-12-26 05:06:00
11:07 PM,68.0,62.6,83,29.65,1.5,West,21.9,40.3,N/A,Rain-Thunderstorm,Heavy Thunderstorms and Rain,260,2012-12-26 05:07:00
11:08 PM,66.2,62.6,88,29.66,1.2,West,18.4,40.3,N/A,Rain-Thunderstorm,Heavy Rain,260,2012-12-26 05:08:00
11:09 PM,66.2,62.6,88,29.66,1.2,West,17.3,31.1,N/A,Rain-Thunderstorm,Heavy Rain,260,2012-12-26 05:09:00
11:10 PM,66.2,62.6,88,29.66,1.0,West,20.7,31.1,N/A,Rain-Thunderstorm,Heavy Rain,260,2012-12-26 05:10:00
11:12 PM,64.4,60.8,88,29.66,1.0,West,26.5,35.7,N/A,Rain-Thunderstorm,Heavy Rain,260,2012-12-26 05:12:00
11:16 PM,60.8,55.4,82,29.66,1.2,WSW,23.0,35.7,N/A,Rain,Light Rain,250,2012-12-26 05:16:00
11:17 PM,60.8,53.6,77,29.66,1.5,WSW,21.9,35.7,N/A,Rain-Thunderstorm,Light Thunderstorms and Rain,250,2012-12-26 05:17:00
11:18 PM,60.8,51.8,72,29.66,2.0,WSW,19.6,35.7,N/A,Rain-Thunderstorm,Light Thunderstorms and Rain,250,2012-12-26 05:18:00
11:19 PM,59.0,51.8,77,29.67,2.5,WSW,16.1,35.7,N/A,Rain-Thunderstorm,Light Thunderstorms and Rain,250,2012-12-26 05:19:00
11:20 PM,59.0,51.8,77,29.67,3.0,WSW,13.8,35.7,N/A,Rain-Thunderstorm,Light Thunderstorms and Rain,240,2012-12-26 05:20:00
11:22 PM,59.0,51.8,77,29.67,6.0,SW,13.8,35.7,N/A,Rain-Thunderstorm,Light Thunderstorms and Rain,230,2012-12-26 05:22:00
11:26 PM,57.2,51.8,82,29.67,10.0,SW,10.4,-,N/A,Rain-Thunderstorm,Light Thunderstorms and Rain,220,2012-12-26 05:26:00
11:32 PM,57.2,51.8,82,29.67,10.0,SW,9.2,-,N/A,Rain-Thunderstorm,Light Rain,220,2012-12-26 05:32:00
11:54 PM,57.2,53.6,88,29.68,10.0,SW,10.4,-,N/A,,Overcast,230,2012-12-26 05:54:00
11:55 PM,56.8,52.9,87,29.68,10.0,SW,9.2,-,0.30,Rain,Light Rain,230,2012-12-26 05:55:00